FW2543 Weather Reports


time (UTC)temp
C
wind
direction
speed
KPH
gust
KPH
rain 1hr
cm
rain 24hr
cm
rain mn
cm
humidity
%
barometer
mb
20260507025859 12 38 12.9 37.0 0.00 0.00 0.00 1 1018.6
20260507025359 12 0 14.5 37.0 0.00 0.00 0.00 1 1018.4
20260507024858 12 299 12.9 37.0 0.00 0.00 0.00 1 1018.5
20260507024400 12 0 12.9 38.6 0.00 0.00 0.00 1 1018.6
20260507023859 12 264 12.9 43.5 0.00 0.00 0.00 1 1018.8
20260507023359 12 279 12.9 43.5 0.00 0.00 0.00 1 1018.7
20260507023146 12 76 11.3 35.4 0.00 0.00 0.00 1 1018.5
20260507022400 12 11 14.5 41.8 0.00 0.00 0.00 1 1018.4
20260507021858 12 327 12.9 48.3 0.00 0.00 0.00 1 1018.5
20260507021400 12 192 14.5 48.3 0.00 0.00 0.00 1 1018.4
20260507020858 12 237 16.1 53.1 0.00 0.00 0.00 1 1018.5
20260507020358 12 250 27.4 53.1 0.00 0.00 0.00 1 1018.4
20260507020148 13 251 19.3 49.9 0.00 0.00 0.00 1 1018.5
20260507015358 13 14 17.7 54.7 0.00 0.00 0.00 1 1018.4
20260507015142 13 62 25.7 54.7 0.00 0.00 0.00 1 1018.4
20260507014359 13 152 12.9 46.7 0.00 0.00 0.00 1 1018.4
20260507014145 13 254 14.5 46.7 0.00 0.00 0.00 1 1018.4
20260507013357 13 274 11.3 56.3 0.00 0.00 0.00 1 1018.4
20260507012857 13 6 14.5 56.3 0.00 0.00 0.00 1 1018.4
20260507012356 13 278 14.5 45.1 0.00 0.00 0.00 1 1018.3
20260507012144 13 118 9.7 37.0 0.00 0.00 0.00 1 1018.3
20260507011356 13 0 11.3 54.7 0.00 0.00 0.00 1 1018.2
20260507010855 13 0 25.7 54.7 0.00 0.00 0.00 1 1018.4
20260507010355 14 0 11.3 45.1 0.00 0.00 0.00 1 1018.3
20260507005857 14 276 14.5 46.7 0.00 0.00 0.00 1 1018.3
20260507005356 14 340 19.3 46.7 0.00 0.00 0.00 1 1018.3
20260507004855 14 192 16.1 45.1 0.00 0.00 0.00 1 1018.4
20260507004355 14 275 14.5 41.8 0.00 0.00 0.00 1 1018.3
20260507003856 14 289 12.9 51.5 0.00 0.00 0.00 1 1018.3
20260507003355 14 337 16.1 53.1 0.00 0.00 0.00 1 1018.3
20260507002854 15 295 19.3 53.1 0.00 0.00 0.00 1 1018.4
20260507002355 15 338 12.9 48.3 0.00 0.00 0.00 1 1018.4
20260507001855 15 275 16.1 49.9 0.00 0.00 0.00 1 1018.3
20260507001357 14 272 16.1 49.9 0.00 0.00 0.00 1 1018.4
20260507000857 15 262 30.6 48.3 0.00 0.00 0.00 1 1018.4
20260507000725 15 266 16.1 37.0 0.00 9.75 0.00 1 1018.6
20260507000719 15 0 16.1 37.0 0.00 9.75 0.00 1 1018.5
20260506235355 15 165 14.5 45.1 0.00 9.75 0.00 1 1018.5
20260506234855 15 278 17.7 45.1 0.00 9.75 0.00 1 1018.5
20260506234356 15 216 12.9 45.1 0.00 9.75 0.00 1 1018.6
20260506233856 15 286 16.1 45.1 0.00 9.75 0.00 1 1018.6
20260506233354 15 329 11.3 38.6 0.00 9.75 0.00 1 1018.6
20260506232857 15 0 11.3 43.5 0.00 9.75 0.00 1 1018.6
20260506232355 15 157 14.5 43.5 0.00 9.75 0.00 1 1018.7
20260506231854 16 290 11.3 35.4 0.00 9.75 0.00 1 1018.7
20260506231354 16 259 9.7 48.3 0.00 9.75 0.00 1 1018.6
20260506230853 16 283 19.3 48.3 0.00 9.75 0.00 1 1018.7
20260506230355 16 300 16.1 45.1 0.00 9.75 0.00 1 1018.7
20260506225854 16 324 11.3 45.1 0.00 9.75 0.00 1 1018.8
20260506225355 16 278 12.9 45.1 0.00 9.75 0.00 1 1018.8
20260506224854 16 295 12.9 37.0 0.00 9.75 0.00 1 1018.8
20260506224641 16 37 11.3 48.3 0.00 9.75 0.00 1 1018.9
20260506223853 16 299 14.5 48.3 0.00 9.75 0.00 1 1019.1
20260506223354 16 268 19.3 45.1 0.00 9.75 0.00 1 1019.2
20260506222854 16 293 16.1 46.7 0.00 9.75 0.00 1 1019.2
20260506222355 16 286 14.5 46.7 0.00 9.75 0.00 1 1019.3
20260506221855 16 286 16.1 46.7 0.00 9.75 0.00 1 1019.4
20260506221352 16 10 14.5 37.0 0.00 9.75 0.00 1 1019.4
20260506220854 16 237 9.7 37.0 0.00 9.75 0.00 1 1019.4
20260506220352 17 278 12.9 43.5 0.00 9.75 0.00 1 1019.5
20260506215853 17 234 12.9 43.5 0.00 9.75 0.00 1 1019.5
20260506215353 17 264 16.1 41.8 0.00 9.75 0.00 1 1019.6
20260506214852 17 276 14.5 41.8 0.00 9.75 0.00 1 1019.7
20260506214352 17 224 14.5 41.8 0.00 9.75 0.00 1 1019.7
20260506213852 17 118 11.3 37.0 0.00 9.75 0.00 1 1019.7
20260506213351 17 83 17.7 37.0 0.00 9.75 0.00 1 1019.6
20260506212852 17 250 9.7 38.6 0.00 9.75 0.00 1 1019.8
20260506212353 17 285 14.5 38.6 0.00 9.75 0.00 1 1019.7
20260506211853 17 34 11.3 32.2 0.00 9.75 0.00 1 1019.7
20260506211352 17 152 12.9 32.2 0.00 9.75 0.00 1 1019.7
20260506210852 17 255 8.0 29.0 0.00 9.75 0.00 1 1019.7
20260506210351 17 261 8.0 32.2 0.00 9.75 0.00 1 1019.7
20260506205852 17 221 16.1 32.2 0.00 9.75 0.00 1 1019.7
20260506205349 17 282 6.4 33.8 0.00 9.75 0.00 1 1019.8
20260506204852 17 274 9.7 33.8 0.00 9.75 0.00 1 1019.9
20260506204351 17 0 12.9 33.8 0.00 9.75 0.00 1 1019.8
20260506203851 17 17 11.3 29.0 0.00 9.75 0.00 1 1019.8
20260506203351 17 114 8.0 29.0 0.00 9.75 0.00 1 1019.9
20260506202850 17 107 9.7 29.0 0.00 9.75 0.00 1 1020.0
20260506202350 17 244 11.3 37.0 0.00 9.75 0.00 1 1020.0
20260506201852 17 347 14.5 37.0 0.00 9.75 0.00 1 1020.0
20260506201352 17 274 8.0 32.2 0.00 9.75 0.00 1 1020.1
20260506200851 17 244 14.5 32.2 0.00 9.75 0.00 1 1020.2
20260506200640 17 276 12.9 30.6 0.00 9.75 0.00 1 1020.2
20260506195850 18 261 14.5 30.6 0.00 9.75 0.00 1 1020.3
20260506195350 18 258 4.8 29.0 0.00 9.75 0.00 1 1020.3
20260506194850 19 34 6.4 22.5 0.00 9.75 0.00 1 1020.3
20260506194350 19 329 6.4 22.5 0.00 9.75 0.00 1 1020.4
20260506193849 18 314 4.8 19.3 0.00 9.75 0.00 1 1020.4
20260506193350 18 265 6.4 25.7 0.00 9.75 0.00 1 1020.3
20260506192850 18 313 9.7 25.7 0.00 9.75 0.00 1 1020.6
20260506192350 18 354 9.7 24.1 0.00 9.75 0.00 1 1020.4
20260506191848 18 90 6.4 25.7 0.00 9.75 0.00 1 1020.7
20260506191423 19 244 14.5 27.4 0.00 9.75 0.00 1 1020.7
20260506191411 18 330 6.4 27.4 0.00 9.75 0.00 1 1020.6
20260506190639 19 0 3.2 19.3 0.00 9.75 0.00 1 1020.7
20260506185848 18 274 6.4 19.3 0.00 9.75 0.00 1 1020.7
20260506185348 18 268 9.7 19.3 0.00 9.75 0.00 1 1020.7
20260506184849 18 110 6.4 19.3 0.00 9.75 0.00 1 1020.7
20260506184350 18 59 3.2 16.1 0.00 9.75 0.00 1 1020.6
20260506183848 17 106 4.8 20.9 0.00 9.75 0.00 1 1020.7
20260506183348 17 18 3.2 20.9 0.00 9.75 0.00 1 1020.8
20260506182849 17 298 4.8 19.3 0.00 9.75 0.00 1 1020.7
20260506182347 16 238 6.4 25.7 0.00 9.75 0.00 1 1020.8
20260506182132 16 235 9.7 25.7 0.00 9.75 0.00 1 1020.8
20260506181348 16 241 14.5 22.5 0.00 9.75 0.00 1 1020.7
20260506180847 16 336 6.4 20.9 0.00 9.75 0.00 1 1020.7
20260506180347 16 282 6.4 20.9 0.00 9.75 0.00 1 1020.7
20260506175847 16 223 9.7 20.9 0.00 9.75 0.00 1 1020.6
20260506175348 16 0 9.7 20.9 0.00 9.75 0.00 1 1020.6
20260506174848 16 216 9.7 20.9 0.00 9.75 0.00 1 1020.7
20260506174348 16 324 8.0 20.9 0.00 9.75 0.00 1 1020.4
20260506173847 16 303 3.2 9.7 0.00 9.75 0.00 1 1020.4
20260506173347 16 265 3.2 14.5 0.00 9.75 0.00 1 1020.6
20260506172848 16 345 4.8 14.5 0.00 9.75 0.00 1 1020.4
20260506172346 16 306 3.2 16.1 0.00 9.78 0.00 1 1020.6
20260506172131 16 350 8.0 17.7 0.00 9.78 0.00 1 1020.6
20260506171634 16 341 6.4 17.7 0.00 9.78 0.00 1 1020.7
20260506170921 16 268 3.2 19.3 0.00 9.78 0.00 1 1020.8
20260506170910 16 281 1.6 11.3 0.00 9.78 0.00 1 1020.7
20260506165845 16 51 3.2 19.3 0.00 9.78 0.00 1 1020.6
20260506165346 16 348 6.4 17.7 0.00 9.78 0.00 1 1020.7
20260506164845 16 258 11.3 17.7 0.00 9.78 0.00 1 1020.7
20260506164345 16 185 4.8 14.5 0.00 9.78 0.00 1 1020.7
20260506163846 16 241 8.0 14.5 0.00 9.78 0.00 1 1020.7
20260506163345 16 87 4.8 9.7 0.00 9.78 0.00 1 1020.6
20260506162846 16 333 3.2 9.7 0.00 9.78 0.00 1 1020.6
20260506162345 16 13 4.8 9.7 0.00 9.78 0.00 1 1020.6
20260506161845 16 227 1.6 9.7 0.00 9.78 0.00 1 1020.7
20260506161345 15 59 1.6 14.5 0.00 9.78 0.00 1 1020.7
20260506160844 15 214 1.6 14.5 0.00 9.78 0.00 1 1020.7
20260506160345 15 230 4.8 11.3 0.00 9.78 0.00 1 1020.6
20260506155846 15 250 4.8 11.3 0.00 9.78 0.00 1 1020.4
20260506155344 15 8 3.2 6.4 0.00 9.78 0.00 1 1020.6
20260506154844 14 250 1.6 9.7 0.00 9.78 0.00 1 1020.6
20260506154345 14 320 3.2 9.7 0.00 9.78 0.00 1 1020.7
20260506153844 13 330 1.6 8.0 0.00 9.78 0.00 1 1020.6
20260506153345 13 340 1.6 6.4 0.00 9.78 0.00 1 1020.6
20260506152844 13 265 0.0 6.4 0.00 9.78 0.00 1 1020.6
20260506152344 13 321 1.6 8.0 0.00 9.78 0.00 1 1020.6
20260506151843 13 34 1.6 9.7 0.00 9.78 0.00 1 1020.6
20260506151424 13 312 3.2 9.7 0.00 9.78 0.00 1 1020.4
20260506151412 13 344 3.2 9.7 0.00 9.78 0.00 1 1020.6
20260506150343 12 330 3.2 9.7 0.00 9.78 0.00 1 1020.4
20260506150131 12 207 1.6 8.0 0.00 9.78 0.00 1 1020.4
20260506145629 12 286 3.2 11.3 0.00 9.78 0.00 1 1020.4
20260506144844 12 320 4.8 14.5 0.00 9.78 0.00 1 1020.3
20260506144344 12 290 3.2 14.5 0.00 9.78 0.00 1 1020.3
20260506143844 12 32 1.6 11.3 0.00 9.78 0.00 1 1020.3
20260506143344 12 323 3.2 17.7 0.00 9.78 0.00 1 1020.3
20260506142844 12 45 6.4 17.7 0.00 9.78 0.00 1 1020.2
20260506142343 12 42 3.2 17.7 0.00 9.78 0.00 1 1020.1
20260506141842 12 243 4.8 22.5 0.00 9.78 0.00 1 1020.0
20260506141341 12 259 6.4 22.5 0.00 9.78 0.00 1 1020.0
20260506140842 12 0 4.8 16.1 0.00 9.78 0.00 1 1020.0
20260506140341 12 345 6.4 17.7 0.00 9.78 0.00 1 1019.9
20260506135842 12 0 4.8 17.7 0.00 9.78 0.00 1 1019.9
20260506135341 12 51 1.6 17.7 0.00 9.78 0.00 1 1019.8
20260506134842 11 27 6.4 17.7 0.00 9.78 0.00 1 1019.7
20260506134341 11 268 6.4 14.5 0.00 9.78 0.00 1 1019.7
20260506134127 11 35 4.8 16.1 0.00 9.78 0.00 1 1019.6
20260506133341 11 283 4.8 19.3 0.00 9.78 0.00 1 1019.7
20260506133202 11 309 3.2 16.1 0.00 9.78 0.00 1 1019.6
20260506133156 11 350 6.4 19.3 0.00 9.78 0.00 1 1019.7
20260506131840 11 120 4.8 16.1 0.00 9.78 0.00 1 1019.7
20260506131341 11 272 4.8 16.1 0.00 9.78 0.00 1 1019.6
20260506130841 11 295 1.6 14.5 0.00 9.78 0.00 1 1019.6
20260506130340 11 123 6.4 16.1 0.00 9.78 0.00 1 1019.5
20260506125840 12 92 6.4 16.1 0.00 9.78 0.00 1 1019.5
20260506125342 12 278 4.8 16.1 0.00 9.78 0.00 1 1019.5
20260506124914 12 121 4.8 16.1 0.00 9.78 0.00 1 1019.5
20260506124905 12 0 4.8 14.5 0.00 9.78 0.00 1 1019.5
20260506123841 12 117 4.8 16.1 0.00 9.78 0.00 1 1019.4
20260506123342 12 307 3.2 11.3 0.00 9.78 0.00 1 1019.4
20260506122839 12 252 3.2 11.3 0.00 9.78 0.00 1 1019.3
20260506122624 12 330 3.2 16.1 0.00 9.78 0.00 1 1019.4
20260506122208 11 162 3.2 14.5 0.00 9.78 0.00 1 1019.2
20260506122203 12 266 4.8 16.1 0.00 9.78 0.00 1 1019.4
20260506120840 11 265 4.8 14.5 0.00 9.78 0.00 1 1019.3
20260506120339 11 316 6.4 14.5 0.00 9.78 0.00 1 1019.2
20260506115840 11 175 4.8 11.3 0.00 9.78 0.00 1 1019.2
20260506115340 11 90 1.6 14.5 0.00 9.78 0.00 1 1019.2
20260506114839 11 23 3.2 17.7 0.00 9.78 0.00 1 1019.3
20260506114338 11 0 4.8 19.3 0.00 9.78 0.00 1 1019.2
20260506113840 11 265 6.4 19.3 0.00 9.78 0.00 1 1019.1
20260506113338 11 0 6.4 19.3 0.00 9.78 0.00 1 1019.1
20260506112839 11 97 3.2 19.3 0.00 9.78 0.00 1 1019.1
20260506112339 11 169 4.8 16.1 0.00 9.78 0.00 1 1019.0
20260506111838 11 49 3.2 16.1 0.00 9.78 0.00 1 1019.0
20260506111338 11 0 4.8 16.1 0.00 9.78 0.00 1 1018.9
20260506110838 11 16 4.8 20.9 0.00 9.78 0.00 1 1019.0
20260506110339 11 0 9.7 20.9 0.00 9.78 0.00 1 1018.9
20260506105838 11 8 6.4 19.3 0.00 9.78 0.00 1 1018.9
20260506105626 11 220 4.8 19.3 0.00 9.78 0.00 1 1018.9
20260506104835 11 120 3.2 19.3 0.00 9.78 0.00 1 1018.9
20260506104335 11 197 6.4 16.1 0.00 9.78 0.00 1 1018.8
20260506103833 11 296 4.8 17.7 0.00 9.78 0.00 1 1018.8
20260506103332 11 281 8.0 19.3 0.00 9.78 0.00 1 1018.8
20260506102831 11 141 6.4 20.9 0.00 9.78 0.00 1 1018.8
20260506102331 11 269 8.0 20.9 0.00 9.78 0.00 1 1018.8
20260506101832 11 0 6.4 19.3 0.00 9.78 0.00 1 1018.7
20260506101333 11 62 6.4 17.7 0.00 9.78 0.00 1 1018.7
20260506100831 11 354 8.0 17.7 0.00 9.78 0.00 1 1018.7
20260506100331 11 327 4.8 11.3 0.00 9.78 0.00 1 1018.7
20260506095832 11 317 3.2 17.7 0.00 9.78 0.00 1 1018.8
20260506095330 11 0 4.8 17.7 0.00 9.78 0.00 1 1018.7
20260506094830 11 281 6.4 16.1 0.00 9.78 0.00 1 1018.8
20260506094329 11 296 6.4 14.5 0.00 9.78 0.00 1 1018.8
20260506093825 11 333 3.2 11.3 0.00 9.78 0.00 1 1018.8
20260506093319 11 0 3.2 17.7 0.00 9.80 0.00 1 1018.8
20260506092818 11 296 6.4 17.7 0.00 9.80 0.00 1 1018.8
20260506092313 12 282 4.8 16.1 0.00 9.80 0.00 1 1018.7
20260506091809 12 254 6.4 19.3 0.00 9.80 0.00 1 1018.6
20260506091307 11 272 6.4 19.3 0.00 9.80 0.00 1 1018.6
20260506090804 12 0 4.8 19.3 0.00 9.80 0.00 1 1018.6
20260506090304 12 0 6.4 19.3 0.00 9.80 0.00 1 1018.7
20260506090134 12 338 4.8 20.9 0.00 9.80 0.00 1 1018.6
20260506090129 12 337 8.0 19.3 0.00 9.80 0.00 1 1018.6
20260506084803 12 0 6.4 20.9 0.00 9.80 0.00 1 1018.7
20260506084556 12 0 6.4 22.5 0.00 9.80 0.00 1 1018.7
20260506084047 12 265 6.4 22.5 0.00 9.80 0.00 1 1018.7
20260506083305 12 4 6.4 17.7 0.00 9.80 0.00 1 1018.7
20260506082804 12 285 6.4 17.7 0.00 9.80 0.00 1 1018.7
20260506082305 12 286 6.4 17.7 0.00 9.83 0.00 1 1018.8
20260506081803 12 18 6.4 17.7 0.00 9.83 0.00 1 1018.8
20260506081303 12 241 4.8 16.1 0.00 9.83 0.00 1 1018.8
20260506080805 12 296 3.2 17.7 0.00 9.86 0.00 1 1018.9
20260506080303 12 0 3.2 19.3 0.00 9.86 0.00 1 1018.8
20260506073305 11 207 6.4 20.9 0.00 9.91 0.00 1 1018.5
20260506072804 11 1 8.0 20.9 0.00 9.91 0.00 1 1018.6
20260506072551 11 265 6.4 20.9 0.00 9.91 0.00 1 1018.5
20260506071804 11 321 8.0 20.9 0.00 9.93 0.00 1 1018.5
20260506071553 12 278 11.3 20.9 0.00 9.93 0.00 1 1018.4
20260506070804 12 97 1.6 20.9 0.00 9.93 0.00 1 1018.5
20260506070235 12 0 8.0 19.3 0.00 9.93 0.00 1 1018.4
20260506062229 12 282 9.7 19.3 0.00 9.93 9.93 1 1018.1
20260506061729 12 121 4.8 20.9 0.00 9.93 9.93 1 1018.1
20260506061229 12 327 4.8 25.7 0.00 9.93 9.93 1 1018.1
20260506060730 12 278 4.8 25.7 0.00 9.96 9.93 1 1018.1
20260506060229 12 0 3.2 20.9 0.00 9.96 9.93 1 1018.0
20260506051228 12 0 6.4 22.5 0.00 9.98 9.93 1 1017.8
20260506050728 12 320 11.3 25.7 0.00 10.01 9.93 1 1017.8
20260506050227 12 264 9.7 25.7 0.00 10.01 9.93 1 1017.8
20260506044727 12 18 6.4 24.1 0.00 10.03 9.93 1 1017.7
20260506044517 12 31 4.8 24.1 0.00 10.03 9.93 1 1017.6
20260506043728 12 282 6.4 27.4 0.00 10.03 9.93 1 1017.6
20260506043227 12 293 8.0 27.4 0.00 10.03 9.93 1 1017.6
20260506042726 12 303 8.0 22.5 0.00 10.03 9.93 1 1017.5
20260506042228 12 23 6.4 25.7 0.00 10.03 9.93 1 1017.4
20260506042014 12 14 8.0 25.7 0.00 10.03 9.93 1 1017.3
20260506041226 12 327 8.0 22.5 0.00 10.03 9.93 1 1017.3
20260506040726 12 0 9.7 27.4 0.00 10.03 9.93 1 1017.1
20260506040513 12 0 4.8 27.4 0.00 10.03 9.93 1 1017.0
20260506035726 12 183 6.4 20.9 0.00 10.03 9.93 1 1016.9
20260506035310 12 259 6.4 24.1 0.00 10.03 9.93 1 1016.8
20260506035257 12 13 8.0 24.1 0.00 10.03 9.93 1 1016.9
20260506034226 12 289 8.0 27.4 0.00 10.03 9.93 1 1016.8
20260506033727 12 0 8.0 27.4 0.00 10.03 9.93 1 1016.6
20260506033226 12 238 11.3 30.6 0.00 10.03 9.93 1 1016.6
20260506032725 12 142 16.1 30.6 0.00 10.03 9.93 1 1016.6
20260506032226 12 231 17.7 29.0 0.00 10.03 9.93 1 1016.5
20260506031726 12 24 6.4 25.7 0.00 10.03 9.93 1 1016.5
20260506031229 12 247 8.0 25.7 0.00 10.03 9.93 1 1016.4
20260506030726 12 274 8.0 25.7 0.00 10.03 9.93 1 1016.4